Hourly Data Report for October 16, 2003

TORONTO CITY
ONTARIO

43°40'00.000" N
79°24'00.000" W
112.50 m
6158355
71508
XTO

Download Data

Hourly Data (October 2003)
Hourly Data Report for October 16, 2003
TIME
LST
Temp Definition
°C
Dew Point Definition
°C
Rel Hum Definition
%
Precip. Amount Definition
mm

Wind Dir Definition
10's deg

Wind Spd Definition
km/h
Visibility Definition
km
Stn Press Definition
kPa
Hmdx Definition


Wind Chill Definition


Weather Definition


00:00 9.2 3.4 67   LegendMM LegendMM LegendMM 99.47     LegendNANA
01:00 8.1 4.3 77   LegendMM LegendMM LegendMM 99.50     LegendNANA
02:00 7.7 4.6 81   LegendMM LegendMM LegendMM 99.53     LegendNANA
03:00 7.3 4.1 80   LegendMM LegendMM LegendMM 99.62     LegendNANA
04:00 6.6 3.9 83   LegendMM LegendMM LegendMM 99.67     LegendNANA
05:00 6.4 3.7 83   LegendMM LegendMM LegendMM 99.71     LegendNANA
06:00 6.4 3.5 82   LegendMM LegendMM LegendMM 99.78     LegendNANA
07:00 6.4 3.3 81   LegendMM LegendMM LegendMM 99.85     LegendNANA
08:00 7.4 2.6 72   LegendMM LegendMM LegendMM 99.91     LegendNANA
09:00 8.7 1.2 59   LegendMM LegendMM LegendMM 99.95     LegendNANA
10:00 9.6 0.5 53   LegendMM LegendMM LegendMM 99.97     LegendNANA
11:00 10.3 0.2 49   LegendMM LegendMM LegendMM 100.01     LegendNANA
12:00 10.1 1.0 53   LegendMM LegendMM LegendMM 100.04     LegendNANA
13:00 10.6 0.9 51   LegendMM LegendMM LegendMM 100.05     LegendNANA
14:00 10.8 0.3 48   LegendMM LegendMM LegendMM 100.07     LegendNANA
15:00 10.7 -0.6 45   LegendMM LegendMM LegendMM 100.14     LegendNANA
16:00 10.1 -0.4 48   LegendMM LegendMM LegendMM 100.20     LegendNANA
17:00 9.8 -0.9 47   LegendMM LegendMM LegendMM 100.26     LegendNANA
18:00 9.4 -1.5 46   LegendMM LegendMM LegendMM 100.30     LegendNANA
19:00 9.0 -0.2 52   LegendMM LegendMM LegendMM 100.38     LegendNANA
20:00 8.7 0.3 56   LegendMM LegendMM LegendMM 100.45     LegendNANA
21:00 8.8 1.0 58   LegendMM LegendMM LegendMM 100.42     LegendNANA
22:00 8.4 0.7 58   LegendMM LegendMM LegendMM 100.46     LegendNANA
23:00 8.2 0.7 59   LegendMM LegendMM LegendMM 100.48     LegendNANA

Notes on Data Quality.

Legend

  • E = Estimated
  • M = Missing
  • NA = Not Available*
  • [empty] = Indicates an unobserved value
Date modified: